Flag for U.S.A. Weather past 2 weeks in Midland, Texas, U.S.A.

Now
64 °F

Clear.


Feels Like: 64 °F
Forecast: 55 / 78 °F
Wind: 8 mph from Southeast

Location: Midland - Midland Airpark

Current Time: Mar 30, 2015 at 1:10:50 AM

Latest Report: Mar 30, 2015 at 12:35 AM


Visibility: 10 mi

Pressure: 30.19 "Hg

Humidity: 37%

Dew point: 37 °F

Location of MidlandLocation

Historic Weather in Midland — Graph

°F

Midland temperature yesterday

Maximum temperature yesterday: 89 °F (at 1:55 PM)
Minimum temperature yesterday: 56 °F (at 7:55 AM)
Average temperature yesterday: 72 °F

Past Weeks' High & Low Weather Summary

 TemperatureHumidityPressure
High89 °F (Mar 29, 1:55 PM)100% (Mar 17, 11:55 AM)30.40 "Hg (Mar 17, 11:55 AM)
Low37 °F (Mar 15, 7:55 AM)11% (Mar 25, 3:35 PM)29.84 "Hg (Mar 25, 4:35 PM)
Average62 °F55%30.10 "Hg
* Reported Mar 14 11:15 PM — Mar 29 11:55 PM, Midland, Weather by CustomWeather, © 2015

Note: Actual official high and low records may vary slightly from our data, if they occured in-between our weather recording intervals... More about our weather records

Advertising

Midland weather history for previous 24 hours

 ConditionsComfort  
Time TempWeatherWind HumidityBarometerVisibility
11:55 PM
Sun, Mar 29
64 °FClear.9 mph39%30.18 "Hg10 mi
11:35 PM64 °FClear.7 mph41%30.18 "Hg10 mi
11:15 PM64 °FClear.7 mph41%30.18 "Hg10 mi
10:55 PM67 °FClear.8 mph35%30.17 "Hg10 mi
10:15 PM69 °FClear.9 mph32%30.16 "Hg10 mi
9:55 PM69 °FClear.10 mph32%30.15 "Hg10 mi
9:35 PM70 °FClear.9 mph32%30.14 "Hg10 mi
9:15 PM70 °FClear.9 mph32%30.14 "Hg10 mi
8:55 PM72 °FSunny.8 mph29%30.12 "Hg10 mi
8:15 PM75 °FSunny.14 mph24%30.10 "Hg10 mi
7:55 PM77 °FSunny.16 mph22%30.09 "Hg10 mi
7:35 PM79 °FSunny.16 mph21%30.08 "Hg10 mi
7:15 PM80 °FSunny.18 mph20%30.07 "Hg10 mi
6:55 PM82 °FSunny.22 mph19%30.06 "Hg7 mi
6:15 PM87 °FSunny.20 mph14%30.03 "Hg10 mi
5:55 PM89 °FSunny.17 mph13%30.02 "Hg10 mi
5:15 PM89 °FSunny.6 mph12%30.02 "Hg10 mi
4:55 PM89 °FSunny.6 mph11%30.02 "Hg10 mi
4:15 PM89 °FSunny.9 mph11%30.03 "Hg10 mi
3:55 PM89 °FSunny.8 mph12%30.03 "Hg10 mi
3:35 PM89 °FSunny.10 mph13%30.04 "Hg10 mi
3:15 PM89 °FSunny.7 mph12%30.04 "Hg10 mi
2:55 PM89 °FSunny.13 mph13%30.04 "Hg10 mi
2:35 PM89 °FSunny.13 mph13%30.05 "Hg10 mi
2:15 PM89 °FSunny.13 mph13%30.05 "Hg7 mi
1:55 PM89 °FSunny.14 mph13%30.06 "Hg10 mi
1:35 PM89 °FSunny.14 mph12%30.06 "Hg10 mi
1:15 PM87 °FSunny.6 mph15%30.06 "Hg10 mi
12:55 PM86 °FSunny.8 mph17%30.07 "Hg10 mi
12:35 PM85 °FSunny.7 mph20%30.07 "Hg10 mi
12:15 PM83 °FSunny.5 mph21%30.06 "Hg10 mi
11:55 AM80 °FSunny.6 mph23%30.07 "Hg10 mi
11:15 AM76 °FSunny.8 mph25%30.07 "Hg10 mi
10:55 AM73 °FSunny.5 mph28%30.07 "Hg10 mi
10:35 AM71 °FSunny.6 mph31%30.07 "Hg10 mi
10:15 AM69 °FSunny.8 mph36%30.07 "Hg10 mi
9:55 AM66 °FSunny.5 mph42%30.07 "Hg10 mi
9:15 AM62 °FSunny.8 mph46%30.06 "Hg10 mi
8:55 AM62 °FSunny.8 mph47%30.05 "Hg10 mi
8:15 AM56 °FClear.No wind60%30.03 "Hg10 mi
7:55 AM56 °FClear.5 mph60%30.03 "Hg10 mi
7:35 AM56 °FClear.3 mph59%30.02 "Hg10 mi
7:15 AM57 °FClear.7 mph56%30.01 "Hg10 mi
6:55 AM58 °FClear.7 mph53%30.00 "Hg10 mi
6:35 AM60 °FClear.9 mph51%30.00 "Hg10 mi
6:15 AM60 °FClear.12 mph49%30.00 "Hg10 mi
5:55 AM61 °FClear.9 mph47%29.99 "Hg10 mi
5:35 AM61 °FClear.9 mph46%29.99 "Hg10 mi
5:15 AM62 °FClear.10 mph44%29.99 "Hg10 mi
4:55 AM62 °FClear.10 mph43%29.99 "Hg10 mi
4:35 AM62 °FClear.10 mph42%29.99 "Hg10 mi
4:15 AM62 °FClear.9 mph41%30.00 "Hg10 mi
3:55 AM64 °FClear.10 mph38%30.00 "Hg10 mi
3:15 AM65 °FClear.14 mph33%30.00 "Hg10 mi
2:55 AM65 °FClear.12 mph34%30.01 "Hg10 mi
2:35 AM65 °FClear.14 mph35%30.01 "Hg10 mi
2:15 AM66 °FClear.13 mph34%30.02 "Hg10 mi
1:55 AM66 °FClear.13 mph35%30.02 "Hg10 mi
1:15 AM66 °FClear.8 mph38%30.03 "Hg10 mi
Weather by CustomWeather, © 2015

See weather overviewHow to use our weather pages